Overview Statistics Trail Chart Weather Telemetry Raw packets
 

This is the latest recevied weather packets stored in our database for station/object SQ5JP-4. If no packets are shown the sender has not sent any weather packets the latest 10 day(s).

<< 33 34 35 36 37 >>
Time Temp. Humidity Pressure Rain* Wind** Luminosity Snow
1787770119 13.33° C 100% 1004.5 hPa - - - -
1787769219 13.33° C 100% 1004.4 hPa - - - -
1787768319 13.89° C 100% 1004 hPa - - - -
1787767419 14.44° C 100% 1004.3 hPa - - - -
1787766519 15° C 100% 1004.1 hPa - - - -
1787765619 15.56° C 100% 1004.3 hPa - - - -
1787764718 16.67° C 100% 1004.3 hPa - - - -
1787763823 18.33° C 100% 1004.4 hPa - - - -
1787762918 18.33° C 100% 1004.4 hPa - - - -
1787762018 20° C 100% 1004.5 hPa - - - -
1787761118 20° C 100% 1004.6 hPa - - - -
1787760218 20.56° C 100% 1004.5 hPa - - - -
1787759318 20.56° C 100% 1004.5 hPa - - - -
1787758418 20.56° C 100% 1004.4 hPa - - - -
1787757518 21.11° C 100% 1004.5 hPa - - - -
1787756618 21.11° C 100% 1004.4 hPa - - - -
1787755718 22.78° C 100% 1004.6 hPa - - - -
1787754818 27.78° C 62% 1004.7 hPa - - - -
1787753917 29.44° C 100% 1004.6 hPa - - - -
1787753017 23.89° C 100% 1004.7 hPa - - - -
1787752117 27.78° C 89% 1004.9 hPa - - - -
1787751217 27.22° C 95% 1004.8 hPa - - - -
1787749419 25.56° C 100% 1004.8 hPa - - - -
1787748519 23.89° C 100% 1004.9 hPa - - - -
1787747619 23.33° C 100% 1004.9 hPa - - - -

* Rain since midnight (hover to see other rain measurements)
** Current wind speed in m/s (hover to see current wind gust speed)